Regional Weather Roundup
Issued by NWS

Home | Current Version | Previous Version | Graphics & Text | Print | Product List | Glossary On
Versions: 1 2 3 4 5 6 7 8 9 10 11 12 13 14 15 16 17 18 19 20 21 22 23 24 25 26 27 28 29 30 31 32 33 34 35 36 37 38 39 40 41 42 43 44 45 46 47 48 49 50
000
ASUS43 KDTX 271810
RWRMI
MICHIGAN HOURLY REGIONAL WEATHER ROUNDUP
NATIONAL WEATHER SERVICE DETROIT/PONTIAC MI
200 PM EDT WED MAY 27 2015

NOTE: "FAIR" INDICATES FEW OR NO CLOUDS BELOW 12,000 FEET WITH NO
SIGNIFICANT WEATHER AND/OR OBSTRUCTION TO VISIBILITY.

MIZ047>049-052>055-059>063-066>070-074>076-081>083-271900-
SOUTHEAST LOWER MICHIGAN

CITY           SKY/WX    TMP DP  RH WIND       PRES   REMARKS
ADRIAN         MOSUNNY   76  63  64 W14G23    29.98F
6HR MIN TEMP:  65; 6HR MAX TEMP:  78; 6HR PCP:  0.18;

ALMA           MOSUNNY   74  59  57 SW15G26   29.92R
ANN ARBOR      MOSUNNY   76  66  71 SW13      29.94F
BAD AXE        PTSUNNY   77  55  45 W23G35    29.89F
CARO           MOSUNNY   78  58  51 W17G28    29.89F
DETROIT CITY   TSTM      73  66  78 S13       29.96S
6HR MIN TEMP:  69; 6HR MAX TEMP:  79; 6HR PCP:  0.02;

DETROIT        LGT RAIN  72  64  76 S17       29.97S
6HR MIN TEMP:  70; 6HR MAX TEMP:  81; 6HR PCP: TRACE;

FLINT          MOSUNNY   79  57  46 W18       29.91F
6HR MIN TEMP:  70; 6HR MAX TEMP:  81;

GROSSE ILE     HVY RAIN  64  61  88 SW13G25   29.96S
HILLSDALE      MOSUNNY   74  61  62 SW17G26   29.98S
6HR MIN TEMP:  67; 6HR MAX TEMP:  77;

HOWELL         PTSUNNY   71  67  84 W10       29.94S
6HR MIN TEMP:  68; 6HR MAX TEMP:  79;


CITY           SKY/WX    TMP DP  RH WIND       PRES   REMARKS
JACKSON        MOSUNNY   78  60  53 SW21G29   29.93F
6HR MIN TEMP:  68; 6HR MAX TEMP:  79;

LAMBERTVILLE   RAIN      66  61  82 SW10G26   30.01R
LANSING        MOSUNNY   74  62  66 SW17G24   29.93S
6HR MIN TEMP:  68; 6HR MAX TEMP:  77; 6HR PCP:  0.01;

LAPEER         FAIR      78  55  45 SW12G24   29.91F
MASON          HVY RAIN  67  59  75 W10G18    29.95R
MONROE         HVY RAIN  66  63  88 SW14G29   29.97R
MT. CLEMENS    LGT RAIN  74  67  76 SW9       29.93F
6HR MIN TEMP:  70; 6HR MAX TEMP:  80; 6HR PCP:  0.12;

PONTIAC        PTSUNNY   78  59  51 SW14G25   29.92F
6HR MIN TEMP:  67; 6HR MAX TEMP:  80;

PORT HOPE        N/A     78  58  49 SW12G25   29.86S
PORT HURON     PTSUNNY   75  63  64 S15G22    29.93F
TRI CITIES     MOSUNNY   76  59  55 W24G31    29.89F
6HR MIN TEMP:  69; 6HR MAX TEMP:  77;

MIDLAND        PTSUNNY   74  57  55 W15G29    29.88S
TROY           PTSUNNY   75  64  67 SW12G18   29.96S
SAGINAW HB     MOSUNNY   75  57  53 SW14G25   29.89S
$$
MIZ043>046-050>051-056>058-064>065-071>073-077>080-271900-
SOUTHWEST LOWER MICHIGAN

CITY           SKY/WX    TMP DP  RH WIND       PRES   REMARKS
BATTLE CREEK   LGT RAIN  68  63  84 SW12      29.96S
6HR MIN TEMP:  67; 6HR MAX TEMP:  78; 6HR PCP:  0.14;

BENTON HARBOR  MOSUNNY   71  58  63 W18G26    29.97S
6HR MIN TEMP:  67; 6HR MAX TEMP:  72;

BIG RAPIDS     CLOUDY    67  58  73 W16       29.92R
6HR MIN TEMP:  63; 6HR MAX TEMP:  67;

COLDWATER      MOSUNNY   73  61  68 SW16G22   29.96S
6HR MIN TEMP:  67; 6HR MAX TEMP:  75;

FREMONT        CLOUDY    67  59  73 W14       29.94R
HOLLAND        PTSUNNY   71  60  68 W24G31    29.97R
6HR MIN TEMP:  66; 6HR MAX TEMP:  72;

GRAND RAPIDS   PTSUNNY   71  58  63 W20G31    29.94S
6HR MIN TEMP:  68; 6HR MAX TEMP:  74;

IONIA          PTSUNNY   76  58  54 W18G30    29.92S
KALAMAZOO      PTSUNNY   71  64  78 SW8       29.95F
6HR MIN TEMP:  67; 6HR MAX TEMP:  77; 6HR PCP:  0.13;

LUDINGTON      CLOUDY    56  51  84 W6        29.95R
6HR MIN TEMP:  56; 6HR MAX TEMP:  61;

MARSHALL       LGT RAIN  62  58  86 W17G41    29.96R VSB 3/4
MOUNT PLEASANT PTSUNNY   72  60  65 SW17G28   29.91R
6HR MIN TEMP:  67; 6HR MAX TEMP:  73;

MUSKEGON       LGT RAIN  61  55  81 SW9       29.96R
6HR MIN TEMP:  58; 6HR MAX TEMP:  66; 6HR PCP: TRACE;

SOUTH HAVEN    MOSUNNY   70  57  64 W14G23    29.97S
$$
MIZ016>042-271900-
NORTHERN LOWER MICHIGAN

CITY           SKY/WX    TMP DP  RH WIND       PRES   REMARKS
ALPENA         MOSUNNY   76  57  51 W17G29    29.80S
6HR MIN TEMP:  67; 6HR MAX TEMP:  76;

BEAVER ISLAND  RAIN      51  51  98 W10       29.86R
6HR MIN TEMP:  46; 6HR MAX TEMP:  52;

BELLAIRE       CLOUDY    59  57  91 W6        29.88R FOG
6HR MIN TEMP:  59; 6HR MAX TEMP:  65;

CADILLAC       CLOUDY    63  55  75 SW14G25   29.91R
CHARLEVOIX     DRIZZLE   56  56 100 SW13      29.90R
6HR MIN TEMP:  53; 6HR MAX TEMP:  61;

FRANKFORT      RAIN      54  49  82 CALM      29.92R
GAYLORD        LGT RAIN  60  59  96 W18G29    29.87R FOG
6HR MIN TEMP:  60; 6HR MAX TEMP:  64; 6HR PCP: TRACE;

GRAYLING       CLOUDY    64  55  72 SW14G22   29.88R
HARBOR SPRINGS DRIZZLE   53  53  99 W8        29.86R
HOUGHTON LAKE  CLOUDY    68  57  68 W17G28    29.88R
6HR MIN TEMP:  64; 6HR MAX TEMP:  71;

MANISTEE       CLOUDY    55  52  88 W13       29.94R
OSCODA         PTSUNNY   74  57  55 SW28      29.84R
PELLSTON       LGT RAIN  57  54  89 W12       29.84R FOG
6HR MIN TEMP:  53; 6HR MAX TEMP:  61; 6HR PCP:  0.04;

ROGERS CITY    CLOUDY    67  59  75 SW17G26   29.82R
TRAVERSE CITY  DRIZZLE   62  56  80 W14       29.88R
6HR MIN TEMP:  62; 6HR MAX TEMP:  65; 6HR PCP: TRACE;

$$
MIZ007>008-015-271900-
EASTERN UPPER MICHIGAN

CITY           SKY/WX    TMP DP  RH WIND       PRES   REMARKS
KINROSS        CLOUDY    54  52  94 W12G18    29.79R
6HR MIN TEMP:  52; 6HR MAX TEMP:  61;

MACKINAC ISLAN CLOUDY    50  50 100 W13G21    29.82R FOG
6HR MIN TEMP:  48; 6HR MAX TEMP:  59; 6HR PCP:  0.02;

NEWBERRY       LGT RAIN  57  56  97 W14G20    29.81R
6HR MIN TEMP:  50; 6HR MAX TEMP:  57; 6HR PCP:  0.16;

S. S. MARIE    LGT RAIN  53  51  93 W12G18    29.77R FOG
6HR MIN TEMP:  52; 6HR MAX TEMP:  61; 6HR PCP:  0.06;

MUNISING         N/A     60  55  83 CALM      29.82R
6HR MIN TEMP:  46; 6HR MAX TEMP:  60; 6HR PCP:  0.25;

$$
MIZ004>006-011>014-085-271900-
CENTRAL UPPER MICHIGAN

CITY           SKY/WX    TMP DP  RH WIND       PRES   REMARKS
MANISTIQUE     LGT RAIN  60  57  89 NW8       29.84R
6HR MIN TEMP:  49; 6HR MAX TEMP:  60; 6HR PCP:  0.09;

ESCANABA       CLOUDY    63  55  77 SW8       29.85S
6HR MIN TEMP:  52; 6HR MAX TEMP:  63;

MENOMINEE      CLOUDY    66  57  72 SW7       29.88S
6HR MIN TEMP:  55; 6HR MAX TEMP:  66; 6HR PCP:  0.11;

SAWYER-GWINN   MOSUNNY   63  57  82 SW6       29.84R
$$
MIZ001>003-009>011-084-271900-
WESTERN UPPER MICHIGAN

CITY           SKY/WX    TMP DP  RH WIND       PRES   REMARKS
IRON MOUNTAIN  PTSUNNY   71  59  65 SW12G18   29.85R
6HR MIN TEMP:  54; 6HR MAX TEMP:  71; 6HR PCP:  0.01;

HOUGHTON       FAIR      69  54  58 NW20      29.81R
6HR MIN TEMP:  50; 6HR MAX TEMP:  69;

COPPER HARBOR    N/A     60  50  69 N14       29.78R
6HR MIN TEMP:  44; 6HR MAX TEMP:  67;

IRONWOOD       FAIR      73  57  56 W13       29.84R
6HR MIN TEMP:  54; 6HR MAX TEMP:  73;

$$

ABBREVIATIONS USED IN REMARKS
   TC - TEMPERATURE IN CELSIUS
  WCI - WIND CHILL INDEX
   HX - HEAT INDEX
  VSB - VISIBILITY



USA.gov is the U.S. government's official web portal to all federal, state and local government web resources and services.